826  
ASUS44 KMOB 250112  
RWRMOB  
REGIONAL WEATHER ROUNDUP  
NATIONAL WEATHER SERVICE MOBILE AL  
800 PM CDT MON SEP 24 2018  
 
NOTE: "FAIR" INDICATES FEW OR NO CLOUDS BELOW 12,000 FEET WITH NO  
SIGNIFICANT WEATHER AND/OR S TO VISIBILITY
.  
 
* THESE STATIONS ARE PART OF THE UNIVERSITY OF SOUTH ALABAMA  
MESONET AND ARE NOT UNDER NWS OR FAA QUALITY CONTROL.
 
 
ALZ061>064-250200-  
COASTAL ALABAMA  
 
CITY SKY/WX TMP DP RH WIND PRES REMARKS
 
MOBILE REG APT FAIR 80 76 87 SE6 29.98R  
BROOKLEY FIELD FAIR 83 78 85 E13 29.98S  
USA CAMPUS* N/A 77 77 100 E2 29.98R  
DOG RIVER* N/A 82 75 78 SE5 N/A  
 
 
CITY SKY/WX TMP DP RH WIND PRES REMARKS
 
GULF SHORES FAIR 77 75 93 E3 29.99R  
 

 
 
ALZ051>060-250200-  
INTERIOR SOUTHWEST AND SOUTH CENTRAL ALABAMA  
 
CITY SKY/WX TMP DP RH WIND PRES REMARKS
 
GREENVILLE LGT RAIN 74 70 87 CALM 30.03S  
EVERGREEN FAIR 75 72 90 SE3 30.02S  
ATMORE* N/A N/A N/A N/A SE5 30.75R  
ANDALUSIA/OPP FAIR 76 72 87 CALM 30.04R  
ANDALUSIA* N/A N/A N/A N/A E3 30.03S  
FLORALA APT FAIR 74 71 91 CALM 30.05R  
FLORALA* N/A 73 73 100 CALM 30.75R  
 

 
 
FLZ001>006-250200-  
WESTERN FLORIDA PANHANDLE  
 
CITY SKY/WX TMP DP RH WIND PRES REMARKS
 
PENSACOLA FAIR 78 75 90 E8 30.00S  
NAS PENSACOLA MOCLDY 79 76 90 E8 29.99R  
MILTON CLOUDY 73 73 100 E6 30.01S  
WHTNG S FIELD CLOUDY 74 74 100 E6 30.01S  
 
 
CITY SKY/WX TMP DP RH WIND PRES REMARKS
 
JAY* N/A N/A N/A N/A E6 N/A  
DUKE FIELD LGT RAIN 75 74 97 CALM 30.02S  
CRESTVIEW RAIN 75 74 96 E3 30.03F FOG  
VALPARAISO MOCLDY 76 74 93 N3 30.01S  
DESTIN LGT RAIN 77 75 93 CALM 30.02S  
 

 
 
MSZ076-079-250200-  
INTERIOR SOUTHEAST MISSISSIPPI  
 
CITY SKY/WX TMP DP RH WIND PRES REMARKS
 
LEAKESVILLE* NOT AVBL  
AGRICOLA* N/A 75 73 94 CALM 29.98  
 

 
 
MARINE OBSERVATIONS  
 
STATION/POSITION TIME TEMP WIND PRES WAVE
 
AIR SEA DIR/SP/G HT/PER  
(UTC) (F) (DEG/KT/KT) (MB) (FT/S)  
PETIT BOIS ISLND 0042 82 1015.4R  
GRAND BAY 2345 83 160/ 10 1015.0F  
KATRINA CUT 0030 84 170/ 10 1014.9R  
CEDAR POINT 0030 83 140/ 8 1014.6S  
E DAUPHIN ISLAND 0000 83 140/ 12/ 13 1014.7R  
MIDDLE BAY LIGHT 0030 83 110/ 14 1014.9R  
USCG MOBILE BAY 0042 81 86 1014.9F  
STATE DOCKS 0042 80 87 1014.9R  
MEAHER PARK 0030 79 100/ 5 1015.9R  
WEEKS BAY 2345 81 1015.0S  
FORT MORGAN 0042 83 1014.9S  
12 S ORANGE BCH 0050 83 120/ 8/ 10 1015.5R 3/ 5  
PENSACOLA BAY 0042 80 85 1015.8S  
64 S DAUPHIN ISL 0050 85 150/ 8/ 10 1015.2R 2/ 5  
 

 
 
SELECTED LOCATIONS ACROSS THE REGION  
 
CITY SKY/WX TMP DP RH WIND PRES REMARKS
 
NEW ORLEANS MOCLDY 83 76 79 S3 29.93R  
GULFPORT MOCLDY 82 76 81 CALM 29.94R  
PASCAGOULA AP FAIR 79 76 90 CALM 29.96R  
PASCAGOULA* N/A 81 75 83 CALM 29.96  
HATTIESBURG FAIR 77 74 90 SE5 29.97R  
LAUREL FAIR 76 75 97 S5 29.98R  
MERIDIAN MOCLDY 78 73 84 S6 29.99R  
JACKSON FAIR 76 74 93 SE6 29.94R  
MONTGOMERY FAIR 74 73 97 S5 30.03S  
TROY LGT RAIN 72 72 100 CALM 30.05R  
ASHFORD* N/A N/A N/A N/A E3 30.03S  
DOTHAN FAIR 76 73 91 CALM 30.07S  
PANAMA CITY LGT RAIN 78 74 87 CALM 30.02R  
 

 
 
 
 
CLICK HERE TO GO TO PREVIOUS BULLETINS.

The Nexlab AL Page
The Nexlab FL Page
The Nexlab MS Page Main Text Page